TimeMST,TemperatureF,Dew PointF,Humidity,Sea Level PressureIn,VisibilityMPH,Wind Direction,Wind SpeedMPH,Gust SpeedMPH,PrecipitationIn,Events,Conditions,WindDirDegrees,DateUTC
12:15 AM,46.4,24.8,43,29.91,10.0,WSW,10.4,-,N/A,,Overcast,250,2013-01-11 07:15:00
12:35 AM,46.4,24.8,43,29.92,10.0,West,13.8,-,N/A,,Overcast,260,2013-01-11 07:35:00
12:55 AM,46.4,23.0,40,29.93,10.0,West,9.2,-,N/A,,Overcast,260,2013-01-11 07:55:00
1:15 AM,46.4,23.0,40,29.95,10.0,WSW,11.5,-,N/A,,Overcast,240,2013-01-11 08:15:00
1:35 AM,46.4,23.0,40,29.96,10.0,SW,10.4,-,N/A,,Overcast,230,2013-01-11 08:35:00
1:55 AM,46.4,23.0,40,29.96,10.0,WSW,12.7,-,N/A,,Overcast,250,2013-01-11 08:55:00
2:15 AM,44.6,24.8,46,29.97,10.0,WSW,12.7,-,N/A,,Overcast,250,2013-01-11 09:15:00
2:35 AM,44.6,24.8,46,29.98,10.0,WSW,9.2,-,N/A,,Overcast,250,2013-01-11 09:35:00
2:55 AM,44.6,24.8,46,29.99,10.0,WSW,8.1,-,N/A,,Overcast,250,2013-01-11 09:55:00
3:15 AM,44.6,24.8,46,30.00,10.0,SW,5.8,-,N/A,,Overcast,230,2013-01-11 10:15:00
3:35 AM,44.6,24.8,46,30.00,10.0,WSW,6.9,-,N/A,,Overcast,250,2013-01-11 10:35:00
3:55 AM,44.6,24.8,46,30.00,10.0,WSW,10.4,-,N/A,,Overcast,250,2013-01-11 10:55:00
4:15 AM,44.6,26.6,49,30.00,10.0,WSW,12.7,-,N/A,,Overcast,250,2013-01-11 11:15:00
4:35 AM,42.8,24.8,49,30.01,10.0,WSW,10.4,-,N/A,,Scattered Clouds,240,2013-01-11 11:35:00
4:55 AM,42.8,24.8,49,30.02,10.0,WSW,11.5,-,N/A,,Clear,250,2013-01-11 11:55:00
5:15 AM,41.0,24.8,53,30.02,10.0,WSW,9.2,-,N/A,,Clear,240,2013-01-11 12:15:00
5:55 AM,39.2,24.8,56,30.02,10.0,WSW,8.1,-,N/A,,Clear,240,2013-01-11 12:55:00
6:15 AM,39.2,24.8,56,30.03,10.0,WSW,6.9,-,N/A,,Clear,240,2013-01-11 13:15:00
6:35 AM,37.4,24.8,60,30.04,10.0,NNE,9.2,-,N/A,,Clear,20,2013-01-11 13:35:00
6:55 AM,39.2,26.6,61,30.05,10.0,NW,3.5,-,N/A,,Clear,310,2013-01-11 13:55:00
7:15 AM,37.4,24.8,60,30.05,10.0,SW,4.6,-,N/A,,Clear,230,2013-01-11 14:15:00
7:35 AM,37.4,26.6,65,30.06,10.0,Calm,Calm,-,N/A,,Clear,0,2013-01-11 14:35:00
7:55 AM,37.4,24.8,60,30.07,10.0,Calm,Calm,-,N/A,,Clear,0,2013-01-11 14:55:00
8:35 AM,39.2,26.6,61,30.09,10.0,South,5.8,-,N/A,,Clear,190,2013-01-11 15:35:00
8:55 AM,39.2,26.6,61,30.10,10.0,Calm,Calm,-,N/A,,Clear,0,2013-01-11 15:55:00
9:15 AM,41.0,26.6,57,30.10,10.0,SW,4.6,-,N/A,,Clear,230,2013-01-11 16:15:00
9:35 AM,42.8,26.6,53,30.10,10.0,WSW,8.1,-,N/A,,Clear,240,2013-01-11 16:35:00
9:55 AM,44.6,24.8,46,30.11,10.0,WSW,10.4,-,N/A,,Clear,250,2013-01-11 16:55:00
10:15 AM,44.6,24.8,46,30.10,10.0,WSW,9.2,-,N/A,,Clear,240,2013-01-11 17:15:00
10:55 AM,46.4,23.0,40,30.10,10.0,West,11.5,-,N/A,,Clear,280,2013-01-11 17:55:00
11:15 AM,46.4,21.2,37,30.10,10.0,West,6.9,-,N/A,,Clear,270,2013-01-11 18:15:00
11:35 AM,46.4,15.8,29,30.09,10.0,West,5.8,-,N/A,,Clear,280,2013-01-11 18:35:00
11:55 AM,48.2,15.8,27,30.08,10.0,NNW,8.1,-,N/A,,Clear,330,2013-01-11 18:55:00
12:15 PM,48.2,12.2,24,30.06,10.0,West,8.1,-,N/A,,Clear,280,2013-01-11 19:15:00
12:35 PM,48.2,15.8,27,30.06,10.0,NNW,8.1,-,N/A,,Clear,330,2013-01-11 19:35:00
1:15 PM,48.2,12.2,24,30.04,10.0,NW,8.1,18.4,N/A,,Clear,320,2013-01-11 20:15:00
1:35 PM,48.2,12.2,24,30.03,10.0,NW,6.9,-,N/A,,Clear,320,2013-01-11 20:35:00
1:55 PM,50.0,10.4,20,30.02,10.0,WNW,10.4,-,N/A,,Clear,290,2013-01-11 20:55:00
2:15 PM,50.0,10.4,20,30.02,10.0,WNW,10.4,-,N/A,,Clear,290,2013-01-11 21:15:00
2:35 PM,50.0,8.6,19,30.02,10.0,NW,8.1,-,N/A,,Clear,310,2013-01-11 21:35:00
2:55 PM,50.0,8.6,19,30.02,10.0,WNW,5.8,-,N/A,,Clear,290,2013-01-11 21:55:00
3:15 PM,50.0,8.6,19,30.02,10.0,NW,8.1,-,N/A,,Clear,310,2013-01-11 22:15:00
3:35 PM,50.0,8.6,19,30.01,10.0,WNW,9.2,-,N/A,,Clear,300,2013-01-11 22:35:00
3:55 PM,50.0,8.6,19,30.01,10.0,WNW,11.5,-,N/A,,Clear,290,2013-01-11 22:55:00
4:15 PM,50.0,8.6,19,30.01,10.0,West,10.4,-,N/A,,Clear,270,2013-01-11 23:15:00
4:35 PM,48.2,8.6,20,30.01,10.0,WNW,9.2,-,N/A,,Clear,290,2013-01-11 23:35:00
4:55 PM,48.2,8.6,20,30.01,10.0,WNW,11.5,-,N/A,,Clear,290,2013-01-11 23:55:00
5:15 PM,48.2,8.6,20,30.01,10.0,West,9.2,-,N/A,,Clear,280,2013-01-12 00:15:00
5:35 PM,46.4,8.6,22,30.01,10.0,WNW,6.9,-,N/A,,Clear,290,2013-01-12 00:35:00
5:55 PM,44.6,8.6,23,30.01,10.0,WNW,4.6,-,N/A,,Clear,300,2013-01-12 00:55:00
6:15 PM,44.6,8.6,23,30.01,10.0,NW,4.6,-,N/A,,Clear,310,2013-01-12 01:15:00
6:35 PM,42.8,8.6,25,30.01,10.0,NW,3.5,-,N/A,,Clear,320,2013-01-12 01:35:00
6:55 PM,41.0,8.6,26,30.01,10.0,NW,4.6,-,N/A,,Clear,320,2013-01-12 01:55:00
7:15 PM,39.2,8.6,28,30.01,10.0,Calm,Calm,-,N/A,,Clear,0,2013-01-12 02:15:00
7:35 PM,37.4,8.6,30,30.01,10.0,Calm,Calm,-,N/A,,Clear,0,2013-01-12 02:35:00
7:55 PM,35.6,10.4,35,30.01,10.0,Calm,Calm,-,N/A,,Clear,0,2013-01-12 02:55:00
8:15 PM,37.4,10.4,33,30.00,10.0,Calm,Calm,-,N/A,,Clear,0,2013-01-12 03:15:00
8:35 PM,35.6,10.4,35,30.00,10.0,Calm,Calm,-,N/A,,Clear,0,2013-01-12 03:35:00
8:55 PM,35.6,10.4,35,30.00,10.0,Calm,Calm,-,N/A,,Clear,0,2013-01-12 03:55:00
9:15 PM,32.0,10.4,41,30.01,10.0,Calm,Calm,-,N/A,,Clear,0,2013-01-12 04:15:00
9:35 PM,35.6,12.2,38,30.01,10.0,Calm,Calm,-,N/A,,Clear,0,2013-01-12 04:35:00
9:55 PM,32.0,10.4,41,30.00,10.0,Calm,Calm,-,N/A,,Clear,0,2013-01-12 04:55:00
10:35 PM,33.8,10.4,38,30.01,10.0,Calm,Calm,-,N/A,,Clear,0,2013-01-12 05:35:00
10:55 PM,33.8,10.4,38,30.01,10.0,Calm,Calm,-,N/A,,Clear,0,2013-01-12 05:55:00
11:15 PM,30.2,8.6,40,30.01,10.0,Calm,Calm,-,N/A,,Clear,0,2013-01-12 06:15:00
11:35 PM,32.0,10.4,41,30.01,10.0,Calm,Calm,-,N/A,,Clear,0,2013-01-12 06:35:00
11:55 PM,28.4,8.6,43,30.01,10.0,Calm,Calm,-,N/A,,Clear,0,2013-01-12 06:55:00